SCP
2 2 2 2 2 2 3 3 2 2 2 2 2 2 1 1 1 1 1 1 1 1 1 1 1 1 1 1 1 1 1 0 0 0 0 0 0 0 1 1 1 1 1
2 2 2 2 2 2 2 2 2 2 2 2 2 2 1 1 1 1 1 1 1 1 0 0 0 0 0 1 1 1 0 0 0 0 0 0 0 0 0 0 0 0 0
2 2 2 2 2 2 2 2 2 2 2 2 2 2 1 1 1 1 1 1 1 0 0 0 0 0 0 0 0 0 0 0 0 0 0 0 0 0 0 0 0 0 0
2 2 2 2 2 2 1 2 2 2 2 2 2 1 1 1 1 1 1 1 0 0 0 0 0 0 0 0 0 0 0 0 0 0 0 0 0 0 0 0 0 0 0
1 1 1 1 1 1 1 1 2 2 2 2 1 1 1 1 1 1 1 1 0 0 0 0 0 0 0 0 0 0 0 0 0 0 0 0 0 0 0 0 0 0 0
1 1 1 1 1 1 1 1 1 1 1 1 1 1 1 1 1 1 0 0 0 0 0 0 0 0 0 0 0 0 0 0 0 0 0 0 0 0 0 0 0 0 0
1 1 1 1 1 1 1 1 1 1 1 1 1 1 1 1 0 0 0 0 0 0 0 0 0 0 0 0 0 0 0 0 0 0 0 0 0 0 0 0 0 0 0
1 1 1 1 1 1 1 1 1 1 1 1 1 1 0 0 0 0 0 0 0 0 0 0 0 0 0 0 0 0 0 0 0 0 0 0 0 0 0 0 0 0 0
1 1 1 1 1 1 1 1 1 1 1 1 1 0 0 0 0 0 0 0 0 0 0 0 0 0 0 0 0 0 0 0 0 0 0 0 0 0 0 0 0 0 0
1 1 1 1 1 1 1 1 1 1 1 1 0 0 0 0 0 0 0 0 0 0 0 0 0 0 0 0 0 0 0 0 0 0 0 0 0 0 0 0 0 0 0
1 1 1 1 1 1 1 1 1 1 1 0 0 0 0 0 0 0 0 0 0 0 0 0 0 0 0 0 0 0 0 0 0 0 0 0 0 0 0 0 0 0 0
1 1 1 1 1 1 0 0 0 0 0 0 0 0 0 0 0 0 0 0 0 0 0 0 0 0 0 0 0 0 0 0 0 0 0 0 0 0 0 0 0 0 0
1 1 1 1 1 0 0 0 0 0 0 0 0 0 0 0 0 0 0 0 0 0 0 0 0 0 0 0 0 0 0 0 0 0 0 0 0 0 0 0 0 0 0
1 1 1 1 0 0 0 0 0 0 0 0 0 0 0 0 0 0 0 0 0 0 0 0 0 0 0 0 0 0 0 0 0 0 0 0 0 0 0 0 0 0 0
1 1 1 0 0 0 0 0 0 0 0 0 0 0 0 0 0 0 0 0 0 0 0 0 0 0 0 0 0 0 0 0 0 0 0 0 0 0 0 0 0 0 0
0 0 0 0 0 0 0 0 0 0 0 0 0 0 0 0 0 0 0 0 0 0 0 0 0 0 0 0 0 0 0 0 0 0 0 0 0 0 0 0 0 0 0
0 0 0 0 0 0 0 0 0 0 0 0 0 0 0 0 0 0 0 0 0 0 0 0 0 0 0 0 0 0 0 0 0 0 0 0 0 0 0 0 0 0 0
0 0 0 0 0 0 0 0 0 0 0 0 0 0 0 0 0 0 0 0 0 0 0 0 0 0 0 0 0 0 0 0 0 0 0 0 0 0 0 0 0 0 0
0 0 0 0 0 0 0 0 0 0 0 0 0 0 0 0 0 0 0 0 0 0 0 0 0 0 0 0 0 0 0 0 0 0 0 0 0 0 0 0 0 0 0
0 0 0 0 0 0 0 0 0 0 0 0 0 0 0 0 0 0 0 0 0 0 0 0 0 0 0 0 0 0 0 0 0 0 0 0 0 0 0 0 0 0 0
0 0 0 0 0 0 0 0 0 0 0 0 0 0 0 0 0 0 0 0 0 0 0 0 0 0 0 0 0 0 0 0 0 0 0 0 0 0 0 0 0 0 0
0 0 0 0 0 0 0 0 0 0 0 0 0 0 0 0 0 0 0 0 0 0 0 0 0 0 0 0 0 0 0 0 0 0 0 0 0 0 0 0 0 0 0
0 0 0 0 0 0 0 0 0 0 0 0 0 0 0 0 0 0 0 0 0 0 0 0 0 0 0 0 0 0 0 0 0 0 0 0 0 0 0 0 0 0 0
0 0 0 0 0 0 0 0 0 0 0 0 0 0 0 0 0 0 0 0 0 0 0 0 0 0 0 0 0 0 0 0 0 0 0 0 0 0 0 0 0 0 0
0 0 0 0 0 0 0 0 0 0 0 0 0 0 0 0 0 0 0 0 0 0 0 0 0 0 0 0 0 0 0 0 0 0 0 0 0 0 0 0 0 0 0
0 0 0 0 0 0 0 0 0 0 0 0 0 0 0 0 0 0 0 0 0 0 0 0 0 0 0 0 0 0 0 0 0 0 0 0 0 0 0 0 0 0 0
Wind_Speed
7 6 7 6 6 6 5 4 3 3 2 2 2 2 2 1 1 1 1 1 0 1 1 2 2 2 1 2 3 2 3 3 2 2 3 4 4 3 2 2 2 2 3
7 7 6 6 5 5 4 4 3 3 2 2 1 1 1 1 1 1 1 0 0 1 1 1 2 2 2 2 2 2 2 3 2 2 2 2 2 1 2 1 2 2 2
7 7 6 5 4 4 4 3 3 3 2 1 1 1 1 1 1 1 1 1 1 0 1 1 2 2 2 2 2 2 3 3 3 2 2 2 2 2 2 2 1 1 1
5 6 6 6 5 4 3 4 4 3 1 1 1 1 1 1 0 0 1 1 1 1 0 1 2 2 2 2 3 3 3 3 3 2 2 2 1 2 2 1 1 1 1
5 5 5 5 4 4 4 4 4 3 2 1 1 0 0 0 1 1 2 1 0 1 1 2 2 2 2 2 2 2 3 2 2 2 3 3 2 3 2 2 2 2 1
6 6 5 5 4 4 4 4 4 3 2 2 2 1 1 1 1 1 0 0 0 1 2 2 2 2 2 2 2 2 2 2 2 2 2 2 2 2 2 3 2 2 2
5 6 6 5 4 4 4 4 5 3 2 2 2 2 1 0 0 0 0 1 1 1 2 2 2 2 2 2 2 2 2 2 2 3 2 2 2 2 2 2 2 2 2
5 5 6 6 4 4 4 5 4 3 2 2 2 2 1 0 1 1 1 1 1 1 1 1 1 2 2 3 2 2 2 2 2 4 3 2 2 2 2 2 2 2 2
5 5 5 6 5 5 4 4 4 3 3 2 2 1 1 1 1 1 0 1 1 1 2 2 2 2 2 3 3 2 3 2 2 3 3 2 2 2 2 2 2 2 2
6 6 6 6 5 5 4 4 3 3 2 2 1 1 1 1 0 0 0 1 1 2 2 1 1 2 2 2 2 2 3 3 3 2 2 2 2 2 2 2 2 2 2
6 6 6 6 5 5 4 3 3 2 2 2 1 1 1 1 1 1 1 1 1 1 1 2 2 2 2 2 2 3 3 3 4 4 3 3 3 2 2 2 2 2 2
6 6 6 6 5 4 3 2 1 1 1 2 2 1 1 2 2 1 1 1 1 1 1 2 2 2 2 3 3 3 3 3 4 4 4 4 3 3 3 2 3 2 2
6 6 6 5 4 3 2 2 1 1 1 2 2 2 1 2 2 2 2 1 1 1 1 1 2 2 2 2 3 3 3 3 3 4 4 4 4 4 3 3 3 2 2
5 6 6 5 4 3 2 1 1 1 1 2 2 2 1 1 1 1 2 2 1 1 1 1 2 1 2 2 3 3 3 3 3 3 3 4 3 4 4 4 3 2 2
5 6 5 5 4 2 2 1 0 1 1 1 1 2 1 1 1 1 1 1 2 2 2 2 2 1 2 4 5 4 4 4 4 3 3 3 2 3 3 3 3 3 2
5 5 5 5 4 2 1 1 1 1 1 1 1 1 1 0 0 0 1 1 2 2 2 2 2 2 3 4 6 5 4 4 4 3 3 2 1 2 3 3 3 3 3
4 4 5 4 3 2 1 1 1 1 1 1 1 1 0 0 1 1 2 2 2 1 2 2 2 2 2 3 4 5 5 4 3 3 3 3 3 3 3 3 4 4 5
4 4 3 4 3 2 2 2 1 2 2 1 1 1 0 0 1 1 1 1 2 2 2 2 2 1 2 3 4 7 4 4 3 3 3 2 2 4 5 4 3 2 2
5 4 3 4 3 2 2 2 2 2 1 1 0 1 1 1 1 1 1 1 1 2 2 2 1 1 1 2 3 5 4 4 4 3 3 3 2 4 6 4 3 3 3
5 4 3 4 3 2 2 1 1 2 1 1 1 1 1 1 1 1 1 1 2 2 2 2 1 1 1 1 2 3 3 3 3 2 0 2 3 3 5 4 4 4 3
5 4 4 4 3 2 2 1 1 1 1 1 1 0 1 1 1 1 1 1 2 3 2 2 2 2 1 1 2 1 2 3 4 3 1 0 2 3 4 4 3 4 4
5 4 3 3 3 2 2 2 1 2 2 1 0 0 0 2 1 1 1 2 2 3 3 2 2 1 1 1 2 3 3 4 3 3 3 1 3 5 6 4 5 6 5
5 4 3 4 3 2 2 2 2 2 2 1 0 1 1 1 1 2 2 2 2 2 2 1 1 1 0 1 2 3 4 5 3 3 6 7 8 8 6 7 8 6 4
5 4 3 3 3 2 1 2 2 2 1 1 1 1 1 2 2 2 2 2 2 2 3 2 2 1 1 1 1 2 2 4 4 4 6 9 10 7 7 6 5 4 4
5 4 3 3 3 2 2 2 2 2 1 1 1 2 2 2 2 1 2 2 1 2 2 3 3 2 2 2 3 3 3 3 3 5 5 5 4 4 4 4 4 4 3
5 4 4 3 3 2 2 2 2 2 2 1 2 2 2 2 2 2 1 1 3 3 4 4 4 3 3 4 5 5 6 6 5 3 5 5 5 5 4 3 3 3 3
Wind_Direction
145 133 127 131 135 131 137 147 151 148 160 159 181 187 193 172 165 150 129 138 25 352 299 326 320 313 327 337 319 307 292 282 282 285 285 271 254 240 229 235 243 231 222
142 135 143 139 130 132 142 148 158 163 175 166 180 180 162 193 166 120 116 123 28 309 293 357 330 352 330 331 321 326 311 313 316 293 292 286 280 289 263 231 223 238 239
151 150 147 137 143 144 146 150 148 155 171 174 159 136 147 209 166 137 122 63 339 314 351 356 6 348 332 350 328 340 328 314 312 299 289 290 292 322 280 271 263 237 266
146 143 144 149 157 150 143 135 132 140 154 155 154 198 199 194 91 62 91 59 3 358 25 17 19 0 351 355 335 18 332 317 314 317 298 279 291 288 301 303 295 295 292
143 148 151 146 140 135 133 125 124 128 138 149 125 225 354 72 68 54 73 63 48 38 40 47 27 3 351 359 349 343 328 320 324 323 317 310 294 261 264 278 287 287 278
147 148 144 133 125 123 123 124 120 117 113 105 92 78 62 57 69 50 160 256 140 75 50 40 28 1 352 344 327 314 307 311 316 308 302 308 309 303 290 280 284 277 280
139 134 132 126 121 118 115 113 117 110 104 95 83 75 69 31 179 183 70 329 357 71 57 31 7 354 350 329 326 308 301 307 311 299 295 299 292 296 291 284 287 291 295
138 128 124 122 118 110 110 103 98 103 108 100 92 74 58 37 50 34 16 2 11 35 52 38 4 352 341 340 340 309 316 331 322 311 308 291 296 302 293 285 289 292 283
134 123 115 116 115 108 105 107 106 105 101 93 92 102 88 46 33 35 356 24 20 344 32 19 5 346 341 344 340 341 336 332 316 313 319 318 313 305 303 295 280 273 279
133 122 118 114 115 111 103 102 105 99 99 100 86 85 78 53 314 305 35 55 38 28 16 360 350 346 344 343 345 339 342 337 324 315 321 325 315 311 309 309 300 275 265
130 123 126 123 122 116 104 102 99 101 111 123 115 74 36 326 340 35 38 52 49 31 359 351 355 354 347 347 345 337 335 342 340 330 331 325 317 316 311 312 309 301 273
126 126 122 121 121 112 109 106 120 147 156 141 126 95 43 10 8 26 35 44 62 23 10 353 344 341 355 353 342 337 346 343 340 334 331 323 320 325 318 308 295 292 285
137 135 130 132 125 123 127 121 135 157 147 131 124 103 69 31 16 11 4 8 24 345 319 322 325 336 349 344 341 341 338 346 339 337 338 334 335 329 323 306 298 293 296
144 139 132 128 132 136 130 131 146 153 139 122 112 107 101 71 42 14 1 358 356 322 311 310 309 323 347 350 349 348 347 342 336 335 335 337 343 336 326 312 313 308 299
141 137 136 134 142 143 152 156 116 81 87 100 104 111 118 110 82 6 334 341 346 344 341 327 322 336 8 14 4 342 342 343 334 333 338 342 352 345 325 321 329 324 308
144 141 141 142 149 153 159 158 115 108 128 127 106 93 86 49 354 334 322 347 5 358 345 343 349 3 19 32 16 351 332 322 322 324 322 302 275 302 285 283 289 290 290
143 139 144 144 148 150 152 160 111 131 140 136 129 138 127 28 18 5 14 9 4 344 331 329 347 33 29 8 350 340 318 306 310 311 307 316 359 351 335 304 275 270 260
136 129 126 131 131 143 158 155 144 137 144 152 166 188 105 29 55 35 15 348 335 325 314 308 305 332 359 344 334 329 310 299 295 305 317 325 5 5 346 323 319 311 292
115 114 120 127 135 145 153 146 130 133 141 155 131 64 20 29 27 18 347 334 313 303 293 283 278 305 327 308 320 327 309 305 308 318 346 351 35 8 350 333 324 321 304
109 116 124 124 125 126 119 127 148 143 136 105 69 65 23 4 322 303 303 312 299 288 289 302 307 304 305 279 292 315 301 319 320 317 51 44 17 357 351 335 325 322 320
118 124 123 121 121 126 140 172 174 137 119 115 104 76 46 318 274 280 297 287 290 299 295 286 274 263 253 231 243 294 302 320 327 325 330 36 332 330 323 309 295 289 298
126 124 118 116 118 136 163 169 153 130 127 125 99 29 340 310 348 359 296 278 272 278 272 263 263 250 223 220 220 238 260 297 315 320 334 348 296 299 297 282 273 285 295
128 129 133 128 132 152 161 155 148 157 158 159 173 298 306 309 305 285 276 278 280 282 288 282 274 287 270 211 227 241 268 282 288 303 315 309 288 283 277 258 263 271 266
136 143 147 141 135 147 158 147 154 163 167 173 209 255 259 263 260 259 269 284 311 318 322 330 330 322 336 0 347 290 275 276 276 287 293 287 278 272 276 279 258 233 237
147 155 151 141 141 151 150 141 142 151 160 177 250 268 269 271 267 277 302 297 313 302 304 318 322 328 337 330 334 323 325 339 351 326 300 283 274 262 256 252 245 231 228
151 154 154 154 153 153 150 148 157 158 162 212 259 274 276 272 263 241 260 288 245 242 249 255 269 291 274 279 294 300 298 300 315 311 286 287 286 280 274 269 255 239 228